{"data":{"norad_id":63017,"intl_designator":"2025-032N","name":"STARLINK-11400 [DTC]","alt_names":[],"object_type":"PAYLOAD","status":"ACTIVE","operator":null,"country":"US","launch_date":"2025-02-15","launch_site_code":"AFETR","launch_vehicle":null,"mission":null,"orbit_class":"UNKNOWN","rcs_meters":null,"size_class":null,"mass_kg":null,"dimensions":null,"purposes":["comms"],"wikipedia_slug":null,"has_3d_model":false,"image_url":null,"decayed_at":null,"tle_current":{"epoch":"2026-09-21T20:37:42.149568Z","epoch_age_seconds":47357,"freshness":"FRESH","line1":"1 63017U 25032N   26264.85951562  .00145016  00000+0  11083-2 0  9991","line2":"2 63017  43.0082  93.1138 0004303 259.6020 100.4363 15.70955829 93061","mean_motion":15.70955829,"eccentricity":0.0004303,"inclination_deg":43.0082,"raan_deg":93.1138,"arg_perigee_deg":259.602,"mean_anomaly_deg":100.4363,"bstar":0.0011083,"rev_number":9306,"period_min":91.663939457587,"perigee_km":353.26625122101,"apogee_km":359.06179067964,"semimajor_km":6734.3010209503,"source":"CELESTRAK","updated_at":"2026-09-22T09:00:49.741157Z"}}}